DW1541 Weather Reports


Display with metric or nautical units.
time (UTC)temp
F
wind
direction
speed
MPH
gust
MPH
rain 1hr
in
rain 24hr
in
rain mn
in
humidity
%
barometer
mb
20200929074807 54 243 0.0 0.0 0.00 0.00 0.00 92 1021.9
20200929073737 55 244 0.0 0.0 0.00 0.00 0.00 91 1021.9
20200929072720 55 244 0.0 0.0 0.00 0.00 0.00 91 1021.9
20200929071741 55 244 0.0 0.0 0.00 0.00 0.00 91 1021.9
20200929070801 55 244 0.0 0.0 0.00 0.00 0.00 91 1021.9
20200929065805 56 244 0.0 0.0 0.00 0.00 0.00 91 1021.9
20200929064748 56 243 0.0 0.0 0.00 0.00 0.00 91 1021.9
20200929063738 56 243 0.0 0.0 0.00 0.00 0.00 91 1021.9
20200929062747 56 243 0.0 0.0 0.00 0.00 0.00 90 1021.9
20200929061745 56 244 0.0 0.0 0.00 0.00 0.00 90 1021.9
20200929060710 57 243 0.0 0.0 0.00 0.00 0.00 90 1021.9
20200929055704 57 243 0.0 0.0 0.00 0.00 0.00 89 1021.9
20200929054639 57 243 0.0 0.0 0.00 0.00 0.00 89 1021.9
20200929053637 58 243 0.0 0.0 0.00 0.00 0.00 89 1021.9
20200929052640 58 243 0.0 0.0 0.00 0.00 0.00 89 1021.9
20200929051628 58 243 0.0 0.0 0.00 0.00 0.00 88 1021.9
20200929050647 58 243 0.0 0.0 0.00 0.00 0.00 88 1021.9
20200929045651 59 244 0.0 0.0 0.00 0.00 0.00 87 1021.9
20200929044716 59 244 0.0 0.0 0.00 0.00 0.00 87 1021.9
20200929043655 59 244 0.0 0.0 0.00 0.00 0.00 86 1021.9
20200929042620 60 243 0.0 0.0 0.00 0.00 0.00 85 1022.0
20200929041635 60 243 0.0 0.0 0.00 0.00 0.00 85 1022.2
20200929040654 61 243 0.0 0.0 0.00 0.00 0.00 85 1022.0
20200929035632 61 243 0.0 0.0 0.00 0.00 0.00 84 1022.0
20200929034600 61 243 0.0 0.0 0.00 0.00 0.00 83 1022.0
20200929033547 62 243 0.0 0.0 0.00 0.00 0.00 83 1022.0
20200929032607 62 250 0.0 0.0 0.00 0.00 0.00 83 1022.0
20200929031603 62 250 0.0 0.0 0.00 0.00 0.00 82 1022.0
20200929030543 63 250 0.0 0.0 0.00 0.00 0.00 82 1022.0
20200929025552 63 250 0.0 0.0 0.00 0.00 0.00 81 1022.0
20200929024608 63 249 0.0 0.0 0.00 0.00 0.00 81 1022.0
20200929023603 64 248 0.0 0.0 0.00 0.00 0.00 80 1022.1
20200929022612 64 248 0.0 0.0 0.00 0.00 0.00 79 1021.6
20200929021629 64 248 0.0 0.0 0.00 0.00 0.00 79 1021.6
20200929020625 65 250 0.0 0.0 0.00 0.00 0.00 78 1029.0
20200929015615 65 249 0.0 0.0 0.00 0.00 0.00 78 1029.0
20200929014559 66 238 0.0 0.0 0.00 0.00 0.00 77 1029.0
20200929013602 66 238 0.0 0.0 0.00 0.00 0.00 77 1029.0
20200929012609 66 235 0.0 0.0 0.00 0.00 0.00 77 1029.0
20200929011627 67 263 0.0 0.0 0.00 0.00 0.00 77 1029.0
20200929010557 67 269 0.0 4.0 0.00 0.00 0.00 76 1029.0
20200929005618 68 279 0.0 0.0 0.00 0.00 0.00 76 1029.0
20200929004627 68 256 0.0 3.0 0.00 0.00 0.00 75 1029.0
20200929003617 68 250 0.0 4.0 0.00 0.00 0.00 75 1029.0
20200929002605 68 247 0.0 2.0 0.00 0.00 0.00 75 1029.0
20200929001523 68 264 0.0 0.0 0.00 0.00 0.00 76 1029.0
20200929000532 69 282 0.0 3.0 0.00 0.00 0.00 77 1029.0
20200928235540 69 237 0.0 5.0 0.00 0.00 0.00 76 1029.0
20200928234557 69 264 0.0 3.0 0.00 0.00 0.00 76 1029.0
20200928233545 69 262 0.0 1.0 0.00 0.00 0.00 77 1029.0
20200928232516 68 267 0.0 4.0 0.00 0.00 0.00 76 1029.0
20200928231443 68 5 0.0 1.0 0.00 0.00 0.00 75 1029.0
20200928230443 68 292 0.0 0.0 0.00 0.00 0.00 76 1029.0
20200928225450 68 259 0.0 0.0 0.00 0.00 0.00 74 1029.0
20200928224456 68 229 0.0 2.0 0.00 0.00 0.00 75 1029.0
20200928223444 68 86 0.0 1.0 0.00 0.00 0.00 76 1029.0
20200928222417 68 315 0.0 0.0 0.00 0.00 0.00 76 1029.0
20200928221436 68 270 0.0 0.0 0.00 0.00 0.00 77 1029.0
20200928220355 68 288 0.0 3.0 0.00 0.00 0.00 77 1029.0
20200928215410 68 319 0.0 1.0 0.00 0.00 0.00 78 1029.0
20200928214356 68 33 0.0 1.0 0.00 0.00 0.00 79 1029.0
20200928213402 67 55 0.0 0.0 0.00 0.00 0.00 81 1029.0
20200928212341 67 260 0.0 0.0 0.00 0.00 0.00 80 1029.0
20200928211334 66 45 0.0 0.0 0.00 0.00 0.00 80 1029.0
20200928210331 66 231 0.0 1.0 0.00 0.00 0.00 80 1029.0
20200928205332 66 11 0.0 2.0 0.00 0.00 0.00 82 1029.0
20200928204333 66 298 0.0 0.0 0.00 0.00 0.00 80 1029.0
20200928203312 65 40 0.0 4.0 0.00 0.00 0.00 80 1029.0
20200928202246 65 255 0.0 3.0 0.00 0.00 0.00 82 1029.0
20200928201247 64 249 0.0 2.0 0.00 0.00 0.00 85 1029.0
20200928200239 63 237 0.0 1.0 0.00 0.00 0.00 87 1029.0
20200928195208 62 269 0.0 3.0 0.00 0.00 0.00 94 1029.0
20200928194224 61 33 0.0 3.0 0.00 0.00 0.00 94 1029.0
20200928193246 59 273 0.0 4.0 0.00 0.00 0.00 94 1029.0
20200928192224 57 290 0.0 0.0 0.00 0.00 0.00 94 1029.0
20200928191217 56 289 0.0 0.0 0.00 0.00 0.00 94 1029.0
20200928190204 56 278 0.0 0.0 0.00 0.00 0.00 94 1029.0
20200928185136 55 281 0.0 0.0 0.00 0.00 0.00 94 1029.0
20200928184114 55 31 0.0 1.0 0.00 0.00 0.00 94 1029.0
20200928183119 54 261 0.0 1.0 0.00 0.00 0.00 94 1029.0
20200928182116 54 302 0.0 0.0 0.00 0.00 0.00 94 1029.0
20200928181041 54 336 0.0 0.0 0.00 0.00 0.00 94 1029.0
20200928180031 54 342 0.0 1.0 0.00 0.00 0.00 94 1029.0
20200928175023 53 234 0.0 1.0 0.00 0.00 0.00 94 1029.0
20200928174047 53 236 0.0 0.0 0.00 0.00 0.00 94 1029.0
20200928173102 52 232 0.0 0.0 0.00 0.00 0.00 94 1029.0
20200928172038 51 232 0.0 0.0 0.00 0.00 0.00 94 1029.0
20200928171026 51 232 0.0 0.0 0.00 0.00 0.00 94 1029.0
20200928170029 50 232 0.0 0.0 0.00 0.00 0.00 94 1029.0
20200928165014 50 232 0.0 0.0 0.00 0.00 0.00 94 1029.0
20200928164102 49 232 0.0 0.0 0.00 0.00 0.00 94 1029.0
20200928163004 49 232 0.0 0.0 0.00 0.00 0.00 94 1029.0
20200928162004 48 232 0.0 0.0 0.00 0.00 0.00 94 1029.0
20200928160950 48 232 0.0 0.0 0.00 0.00 0.00 94 1029.0
20200928155919 47 232 0.0 0.0 0.00 0.00 0.00 94 1029.0
20200928154920 47 232 0.0 0.0 0.00 0.00 0.00 94 1029.0
20200928153919 47 232 0.0 0.0 0.00 0.00 0.00 94 1029.0
20200928152909 47 233 0.0 0.0 0.00 0.00 0.00 94 1029.0
20200928151846 47 233 0.0 0.0 0.00 0.00 0.00 94 1029.0
20200928150853 46 233 0.0 0.0 0.00 0.00 0.00 94 1029.0
20200928145913 46 233 0.0 0.0 0.00 0.00 0.00 94 1029.0
20200928144842 46 233 0.0 0.0 0.00 0.00 0.00 94 1029.0
20200928143905 46 233 0.0 0.0 0.00 0.00 0.00 94 1029.0
20200928142925 46 233 0.0 0.0 0.00 0.00 0.00 93 1029.0
20200928141926 46 233 0.0 0.0 0.00 0.00 0.00 94 1029.0
20200928140915 47 233 0.0 0.0 0.00 0.00 0.00 94 1029.0
20200928135853 47 233 0.0 0.0 0.00 0.00 0.00 94 1029.0
20200928134915 47 233 0.0 0.0 0.00 0.00 0.00 93 1029.0
20200928133901 47 233 0.0 0.0 0.00 0.00 0.00 93 1029.0
20200928132856 47 233 0.0 0.0 0.00 0.00 0.00 94 1029.0
20200928131818 47 233 0.0 0.0 0.00 0.00 0.00 94 1029.0
20200928130837 47 233 0.0 0.0 0.00 0.00 0.00 94 1029.0
20200928125830 47 232 0.0 0.0 0.00 0.00 0.00 93 1029.0
20200928124828 47 232 0.0 0.0 0.00 0.00 0.00 93 1029.0
20200928123837 48 232 0.0 0.0 0.00 0.00 0.00 94 1029.0
20200928122832 48 232 0.0 0.0 0.00 0.00 0.00 94 1029.0
20200928121801 48 232 0.0 0.0 0.00 0.00 0.00 93 1029.0
20200928120727 48 232 0.0 0.0 0.00 0.00 0.00 93 1029.0
20200928115742 48 232 0.0 0.0 0.00 0.00 0.00 93 1029.0
20200928114748 48 232 0.0 0.0 0.00 0.00 0.00 93 1029.0
20200928113757 49 232 0.0 0.0 0.00 0.00 0.00 93 1029.0
20200928112759 49 232 0.0 0.0 0.00 0.00 0.00 93 1029.0
20200928111750 49 232 0.0 0.0 0.00 0.00 0.00 93 1029.0
20200928110734 49 232 0.0 0.0 0.00 0.00 0.00 93 1029.0
20200928105741 49 232 0.0 0.0 0.00 0.00 0.00 93 1029.0
20200928104736 49 232 0.0 0.0 0.00 0.00 0.00 93 1029.0
20200928103702 49 232 0.0 0.0 0.00 0.00 0.00 93 1029.0
20200928102721 49 232 0.0 0.0 0.00 0.00 0.00 93 1029.1
20200928101700 49 232 0.0 0.0 0.00 0.00 0.00 93 1029.1
20200928100658 50 232 0.0 0.0 0.00 0.00 0.00 93 1029.1
20200928095636 50 232 0.0 0.0 0.00 0.00 0.00 93 1029.1
20200928094618 50 232 0.0 0.0 0.00 0.00 0.00 93 1029.1
20200928093620 50 232 0.0 0.0 0.00 0.00 0.00 93 1029.1
20200928092623 50 232 0.0 0.0 0.00 0.00 0.00 93 1029.7
20200928091600 50 232 0.0 0.0 0.00 0.00 0.00 93 1029.7
20200928090602 50 232 0.0 0.0 0.00 0.00 0.00 93 1029.8
20200928085543 51 232 0.0 0.0 0.00 0.00 0.00 93 1029.8
20200928084541 51 232 0.0 0.0 0.00 0.00 0.00 93 1030.6
20200928083600 51 232 0.0 0.0 0.00 0.00 0.00 93 1030.6
20200928082608 51 232 0.0 0.0 0.00 0.00 0.00 93 1030.6
20200928081557 51 232 0.0 0.0 0.00 0.00 0.00 93 1030.6
20200928080534 51 232 0.0 0.0 0.00 0.00 0.00 93 1030.6
20200928075539 51 232 0.0 0.0 0.00 0.00 0.00 93 1030.6